�������l�o���
Date,Time,MP-1(��Sv/h),MP-2(��Sv/h),MP-3(��Sv/h),MP-4(��Sv/h),MP-5(��Sv/h),MP-6(��Sv/h),MP-7(��Sv/h),MP-8(��Sv/h),����,����(m/s),���J
2019/09/28,00:00,0.740,1.055,0.725,1.290,0.948,0.424,0.732,0.694,�k��,2.0,��
2019/09/28,00:10,0.741,1.051,0.724,1.289,0.947,0.423,0.731,0.694,�k��,2.9,��
2019/09/28,00:20,0.741,1.052,0.722,1.288,0.949,0.422,0.734,0.694,�k��,3.9,��
2019/09/28,00:30,0.742,1.054,0.724,1.290,0.947,0.422,0.733,0.693,�k��,3.0,��
2019/09/28,00:40,0.741,1.051,0.724,1.286,0.948,0.423,0.733,0.693,�k��,3.3,��
2019/09/28,00:50,0.741,1.052,0.724,1.290,0.950,0.421,0.731,0.694,���k��,4.0,��
2019/09/28,01:00,0.741,1.052,0.723,1.291,0.950,0.421,0.732,0.694,�k��,4.5,��
2019/09/28,01:10,0.742,1.052,0.722,1.290,0.948,0.423,0.730,0.693,�k�k��,3.8,��
2019/09/28,01:20,0.741,1.049,0.724,1.288,0.948,0.421,0.733,0.694,�k�k��,3.1,��
2019/09/28,01:30,0.742,1.052,0.725,1.288,0.947,0.421,0.732,0.692,�k�k��,3.7,��
2019/09/28,01:40,0.741,1.050,0.725,1.289,0.948,0.423,0.733,0.694,�k�k��,2.9,��
2019/09/28,01:50,0.741,1.051,0.724,1.287,0.949,0.421,0.734,0.693,�k,2.9,��
2019/09/28,02:00,0.740,1.052,0.723,1.290,0.946,0.423,0.734,0.692,�k,2.6,��
2019/09/28,02:10,0.740,1.051,0.723,1.287,0.946,0.422,0.733,0.694,�k�k��,1.9,��
2019/09/28,02:20,0.741,1.049,0.724,1.290,0.949,0.423,0.731,0.692,�k,1.1,��
2019/09/28,02:30,0.739,1.052,0.724,1.287,0.947,0.421,0.734,0.694,�k��,1.1,��
2019/09/28,02:40,0.741,1.051,0.724,1.292,0.949,0.422,0.734,0.692,���k��,1.1,��
2019/09/28,02:50,0.741,1.052,0.724,1.289,0.946,0.423,0.733,0.693,�k,1.7,��
2019/09/28,03:00,0.740,1.049,0.723,1.288,0.946,0.422,0.733,0.694,�k��,1.2,��
2019/09/28,03:10,0.741,1.052,0.724,1.288,0.945,0.422,0.734,0.693,�k�k��,0.6,��
2019/09/28,03:20,0.741,1.051,0.724,1.287,0.949,0.422,0.733,0.692,�k,0.6,��
2019/09/28,03:30,0.740,1.050,0.723,1.286,0.947,0.421,0.732,0.694,���쐼,0.6,��
2019/09/28,03:40,0.740,1.048,0.722,1.286,0.946,0.422,0.734,0.693,�k,0.8,��
2019/09/28,03:50,0.739,1.049,0.724,1.291,0.945,0.423,0.733,0.691,���k��,0.8,��
2019/09/28,04:00,0.740,1.050,0.724,1.288,0.947,0.421,0.732,0.692,���k��,0.8,��
2019/09/28,04:10,0.740,1.051,0.723,1.289,0.945,0.422,0.733,0.692,�k��,1.7,��
2019/09/28,04:20,0.741,1.049,0.723,1.289,0.946,0.421,0.733,0.692,�k��,1.9,��
2019/09/28,04:30,0.740,1.049,0.721,1.285,0.946,0.421,0.734,0.693,�k,2.5,��
2019/09/28,04:40,0.739,1.050,0.723,1.288,0.946,0.421,0.733,0.691,�k,2.9,��
2019/09/28,04:50,0.739,1.049,0.723,1.288,0.946,0.421,0.732,0.694,�k,2.2,��
2019/09/28,05:00,0.738,1.050,0.724,1.287,0.947,0.421,0.733,0.693,�k�k��,2.2,��
2019/09/28,05:10,0.738,1.050,0.723,1.288,0.944,0.422,0.733,0.691,�k,2.6,��
2019/09/28,05:20,0.740,1.049,0.723,1.289,0.944,0.421,0.732,0.692,�k,2.8,��
2019/09/28,05:30,0.737,1.050,0.723,1.288,0.944,0.420,0.732,0.692,�k�k��,2.6,��
2019/09/28,05:40,0.739,1.051,0.723,1.288,0.949,0.422,0.733,0.694,�k,2.0,��
2019/09/28,05:50,0.740,1.050,0.724,1.287,0.947,0.419,0.731,0.693,�k,1.5,��
2019/09/28,06:00,0.739,1.049,0.721,1.288,0.947,0.421,0.732,0.693,�k��,0.9,��
2019/09/28,06:10,0.741,1.049,0.723,1.288,0.946,0.419,0.731,0.691,��,0.8,��
2019/09/28,06:20,0.739,1.050,0.723,1.287,0.945,0.420,0.731,0.693,-,CALM,��
2019/09/28,06:30,0.739,1.050,0.722,1.289,0.944,0.421,0.732,0.693,���k��,0.6,��
2019/09/28,06:40,0.739,1.051,0.722,1.288,0.946,0.420,0.732,0.693,�쓌,0.6,��
2019/09/28,06:50,0.740,1.048,0.722,1.288,0.946,0.421,0.733,0.695,���쓌,0.9,��
2019/09/28,07:00,0.739,1.049,0.725,1.289,0.947,0.421,0.732,0.693,���쓌,0.9,��
2019/09/28,07:10,0.740,1.048,0.723,1.289,0.945,0.421,0.731,0.693,��,1.5,��
2019/09/28,07:20,0.740,1.050,0.724,1.289,0.947,0.421,0.733,0.694,���쓌,1.5,��
2019/09/28,07:30,0.741,1.049,0.726,1.290,0.945,0.419,0.731,0.693,���쓌,1.2,��
2019/09/28,07:40,0.741,1.049,0.724,1.289,0.946,0.421,0.731,0.694,�k��,0.9,��
2019/09/28,07:50,0.741,1.051,0.725,1.290,0.948,0.420,0.732,0.692,�k,0.8,��
2019/09/28,08:00,0.739,1.051,0.723,1.289,0.947,0.420,0.732,0.693,��,1.2,��
2019/09/28,08:10,0.741,1.048,0.724,1.289,0.946,0.420,0.730,0.692,���k��,0.9,��
2019/09/28,08:20,0.741,1.048,0.721,1.290,0.944,0.419,0.732,0.692,�k�k��,1.2,��
2019/09/28,08:30,0.741,1.049,0.723,1.289,0.945,0.419,0.730,0.692,���k��,1.2,��
2019/09/28,08:40,0.740,1.043,0.721,1.289,0.945,0.419,0.730,0.692,���k��,1.7,��
2019/09/28,08:50,0.742,1.047,0.722,1.288,0.944,0.418,0.731,0.692,��,1.7,��
2019/09/28,09:00,0.738,1.044,0.722,1.290,0.946,0.419,0.732,0.690,�쓌,2.2,��
2019/09/28,09:10,0.739,1.044,0.722,1.288,0.947,0.420,0.731,0.691,�쓌,2.3,��
2019/09/28,09:20,0.741,1.041,0.721,1.290,0.946,0.419,0.732,0.691,�쓌,2.5,��
2019/09/28,09:30,0.741,1.044,0.723,1.289,0.945,0.419,0.731,0.689,�쓌,1.9,��
2019/09/28,09:40,0.741,1.044,0.720,1.290,0.947,0.418,0.732,0.694,���쓌,3.3,��
2019/09/28,09:50,0.740,1.045,0.722,1.290,0.947,0.420,0.732,0.691,�쓌,2.8,��
2019/09/28,10:00,0.742,1.040,0.721,1.289,0.947,0.419,0.732,0.692,���쓌,2.0,��
2019/09/28,10:10,0.741,1.045,0.723,1.289,0.948,0.421,0.732,0.692,���쓌,2.6,��
2019/09/28,10:20,0.741,1.043,0.721,1.292,0.948,0.419,0.732,0.691,�쓌,2.6,��
2019/09/28,10:30,0.743,1.043,0.723,1.291,0.948,0.420,0.732,0.693,���쓌,2.6,��
2019/09/28,10:40,0.743,1.047,0.724,1.290,0.950,0.421,0.731,0.693,�쓌,3.0,��
2019/09/28,10:50,0.742,1.050,0.725,1.290,0.949,0.419,0.735,0.692,�쓌,3.2,��
2019/09/28,11:00,0.742,1.047,0.723,1.290,0.948,0.420,0.734,0.694,�쓌,2.6,��
2019/09/28,11:10,0.741,1.049,0.722,1.292,0.948,0.421,0.734,0.691,�쓌,3.1,��
2019/09/28,11:20,0.744,1.051,0.724,1.291,0.949,0.422,0.737,0.692,�쓌,3.3,��
2019/09/28,11:30,0.742,1.050,0.724,1.289,0.950,0.420,0.734,0.692,��쓌,2.8,��
2019/09/28,11:40,0.743,1.056,0.723,1.292,0.951,0.422,0.734,0.692,�쓌,2.6,��
2019/09/28,11:50,0.744,1.051,0.723,1.292,0.950,0.421,0.733,0.692,�쓌,2.5,��
2019/09/28,12:00,0.744,1.057,0.727,1.291,0.950,0.422,0.734,0.693,�쓌,3.1,��
2019/09/28,12:10,0.744,1.056,0.725,1.293,0.950,0.421,0.734,0.692,�쓌,3.1,��
2019/09/28,12:20,0.744,1.056,0.726,1.290,0.952,0.421,0.734,0.691,�쓌,3.0,��
2019/09/28,12:30,0.743,1.060,0.725,1.290,0.953,0.421,0.733,0.691,��쓌,2.0,��
2019/09/28,12:40,0.744,1.057,0.725,1.293,0.950,0.422,0.734,0.693,�쓌,2.6,��
2019/09/28,12:50,0.741,1.058,0.725,1.292,0.951,0.422,0.736,0.692,��쓌,3.9,��
2019/09/28,13:00,0.745,1.052,0.726,1.293,0.951,0.423,0.734,0.691,��,4.6,��
2019/09/28,13:10,0.744,1.054,0.724,1.289,0.950,0.422,0.735,0.693,��,4.1,��
2019/09/28,13:20,0.743,1.055,0.726,1.290,0.949,0.422,0.734,0.691,��,3.7,��
2019/09/28,13:30,0.744,1.051,0.725,1.288,0.950,0.422,0.736,0.693,��,3.6,��
2019/09/28,13:40,0.744,1.053,0.725,1.290,0.951,0.421,0.735,0.693,��,1.7,��
2019/09/28,13:50,0.743,1.053,0.724,1.290,0.952,0.422,0.735,0.692,��쐼,1.4,��
2019/09/28,14:00,0.745,1.052,0.724,1.291,0.952,0.422,0.735,0.692,�쐼,2.0,��
2019/09/28,14:10,0.744,1.055,0.724,1.292,0.953,0.422,0.736,0.693,��쐼,3.1,�L
2019/09/28,14:20,0.744,1.056,0.728,1.293,0.952,0.422,0.735,0.692,��,2.2,��
2019/09/28,14:30,0.744,1.057,0.725,1.293,0.954,0.423,0.733,0.692,�쐼,1.7,��
2019/09/28,14:40,0.746,1.059,0.726,1.293,0.951,0.422,0.735,0.693,��,1.9,��
2019/09/28,14:50,0.745,1.054,0.727,1.293,0.953,0.423,0.734,0.691,��,2.3,��
2019/09/28,15:00,0.745,1.056,0.726,1.292,0.953,0.425,0.734,0.694,��,3.1,�L
2019/09/28,15:10,0.745,1.058,0.727,1.293,0.954,0.426,0.734,0.695,��쐼,3.6,��
2019/09/28,15:20,0.745,1.056,0.728,1.293,0.952,0.423,0.734,0.693,��쐼,4.0,��
2019/09/28,15:30,0.746,1.057,0.728,1.293,0.955,0.423,0.735,0.694,��쐼,4.4,��
2019/09/28,15:40,0.744,1.059,0.727,1.291,0.953,0.422,0.733,0.695,��,3.7,��
2019/09/28,15:50,0.747,1.061,0.726,1.291,0.954,0.423,0.735,0.696,��쐼,3.2,��
2019/09/28,16:00,0.745,1.058,0.727,1.290,0.953,0.424,0.738,0.694,��쐼,3.0,��
2019/09/28,16:10,0.743,1.060,0.728,1.291,0.953,0.423,0.735,0.695,��,3.6,��
2019/09/28,16:20,0.744,1.062,0.728,1.292,0.955,0.424,0.735,0.695,��쐼,3.8,��
2019/09/28,16:30,0.745,1.063,0.728,1.292,0.955,0.424,0.735,0.698,��쐼,4.0,��
2019/09/28,16:40,0.744,1.061,0.727,1.293,0.954,0.422,0.736,0.695,��쐼,4.7,��
2019/09/28,16:50,0.745,1.060,0.730,1.291,0.956,0.424,0.735,0.695,��쐼,3.7,��
2019/09/28,17:00,0.747,1.058,0.727,1.293,0.953,0.423,0.735,0.696,��쐼,4.3,��
2019/09/28,17:10,0.746,1.061,0.727,1.295,0.952,0.424,0.735,0.695,��,5.2,��
2019/09/28,17:20,0.744,1.062,0.728,1.296,0.953,0.423,0.734,0.695,��,5.0,��
2019/09/28,17:30,0.743,1.061,0.729,1.293,0.953,0.423,0.736,0.693,��쐼,4.8,��
2019/09/28,17:40,0.743,1.061,0.727,1.293,0.953,0.423,0.734,0.694,��쐼,4.2,��
2019/09/28,17:50,0.745,1.061,0.725,1.293,0.956,0.423,0.735,0.694,��쐼,3.8,�L
2019/09/28,18:00,0.744,1.059,0.730,1.295,0.955,0.424,0.736,0.695,��쐼,2.9,��
2019/09/28,18:10,0.744,1.060,0.728,1.294,0.952,0.424,0.736,0.696,��쐼,1.7,��
2019/09/28,18:20,0.746,1.059,0.728,1.294,0.954,0.425,0.735,0.694,��쓌,2.0,��
2019/09/28,18:30,0.745,1.061,0.728,1.295,0.954,0.424,0.736,0.696,��,2.2,��
2019/09/28,18:40,0.745,1.059,0.729,1.296,0.952,0.422,0.735,0.695,��,2.3,�L
2019/09/28,18:50,0.744,1.061,0.730,1.294,0.954,0.422,0.736,0.695,��쐼,3.2,��
2019/09/28,19:00,0.746,1.060,0.729,1.296,0.955,0.424,0.735,0.695,��쐼,3.0,��
2019/09/28,19:10,0.746,1.060,0.729,1.295,0.954,0.423,0.737,0.695,��쐼,3.1,��
2019/09/28,19:20,0.748,1.059,0.728,1.293,0.954,0.424,0.736,0.697,��,3.3,��
2019/09/28,19:30,0.746,1.062,0.728,1.295,0.955,0.423,0.737,0.694,��,3.8,�L
2019/09/28,19:40,0.747,1.058,0.731,1.295,0.954,0.424,0.735,0.695,��,3.9,�L
2019/09/28,19:50,0.746,1.061,0.729,1.295,0.956,0.424,0.735,0.696,��,3.5,�L
2019/09/28,20:00,0.746,1.060,0.730,1.293,0.956,0.423,0.736,0.695,��,3.2,�L
2019/09/28,20:10,0.746,1.059,0.729,1.295,0.955,0.423,0.736,0.696,��쐼,3.0,�L
2019/09/28,20:20,0.745,1.059,0.729,1.297,0.954,0.424,0.734,0.695,��쐼,2.3,�L
2019/09/28,20:30,0.745,1.057,0.730,1.296,0.955,0.423,0.734,0.693,��쐼,2.5,�L
2019/09/28,20:40,0.746,1.061,0.728,1.297,0.954,0.425,0.735,0.694,��쐼,1.4,�L
2019/09/28,20:50,0.746,1.062,0.728,1.295,0.953,0.423,0.734,0.695,�쓌,2.0,�L
2019/09/28,21:00,0.746,1.062,0.730,1.296,0.954,0.423,0.735,0.696,��쐼,3.9,�L
2019/09/28,21:10,0.747,1.058,0.728,1.295,0.954,0.422,0.734,0.697,�쐼,2.6,�L
2019/09/28,21:20,0.745,1.057,0.729,1.297,0.954,0.422,0.735,0.695,��쐼,3.9,�L
2019/09/28,21:30,0.745,1.059,0.729,1.296,0.953,0.423,0.735,0.694,�쓌,0.8,�L
2019/09/28,21:40,0.746,1.058,0.731,1.295,0.954,0.424,0.736,0.693,��,2.5,��
2019/09/28,21:50,0.745,1.057,0.730,1.296,0.954,0.424,0.734,0.695,��쐼,4.3,��
2019/09/28,22:00,0.746,1.059,0.729,1.298,0.953,0.423,0.734,0.695,��,4.1,�L
2019/09/28,22:10,0.748,1.058,0.729,1.296,0.954,0.422,0.736,0.694,��쐼,4.5,��
2019/09/28,22:20,0.745,1.059,0.727,1.292,0.955,0.424,0.734,0.695,��,2.6,��
2019/09/28,22:30,0.746,1.057,0.729,1.295,0.954,0.425,0.733,0.695,��,2.2,��
2019/09/28,22:40,0.747,1.056,0.729,1.295,0.953,0.422,0.733,0.694,��쐼,2.8,��
2019/09/28,22:50,0.746,1.059,0.729,1.296,0.953,0.422,0.735,0.695,��,3.3,��
2019/09/28,23:00,0.744,1.057,0.729,1.294,0.952,0.423,0.735,0.696,��,4.9,��
2019/09/28,23:10,0.744,1.059,0.729,1.296,0.954,0.423,0.735,0.695,��,4.7,��
2019/09/28,23:20,0.745,1.057,0.729,1.296,0.954,0.423,0.733,0.695,��,4.9,��
2019/09/28,23:30,0.746,1.058,0.729,1.295,0.951,0.422,0.733,0.693,��,4.5,��
2019/09/28,23:40,0.746,1.059,0.729,1.295,0.953,0.424,0.736,0.694,��,4.8,��
2019/09/28,23:50,0.745,1.059,0.729,1.295,0.952,0.422,0.734,0.696,��,5.3,��
